Location: La Bilong�re
(48.1297°N, 1.4584°W)
Time: 03:53:23
(UTC+00:00)

Cosmos 1500 - Pass Details

Date: 03 March 2021
Orbit: 499 x 517 km, 82.5° (Epoch: 17 April)

Event Time Altitude Azimuth Distance (km) Brightness Sun altitude
Rises 18:47:22 0° 171° (S) 2,580 6.6 -9.8°
Reaches altitude 10° 18:49:32 10° 164° (SSE) 1,701 5.6 -10.2°
Maximum altitude 18:53:03 41° 93° (E) 738 3.5 -10.7°
Drops below altitude 10° 18:56:35 10° 23° (NNE) 1,716 5.6 -11.3°
Sets 18:58:47 0° 16° (NNE) 2,606 6.6 -11.7°
